This is the latest recevied weather packets stored in our database for station/object K8JCL-13. If no packets are shown the sender has not sent any weather packets the latest 10 day(s).
| Time | Temp. | Humidity | Pressure | Rain* | Wind** | Luminosity | Snow |
|---|---|---|---|---|---|---|---|
| 1778071309 | 7.78° C | 92% | 1011.5 hPa | 0 mm | - | 89 W/m² | - |
| 1778071006 | 7.78° C | 93% | 1011.5 hPa | 0 mm | - | 79 W/m² | - |
| 1778070704 | 7.78° C | 94% | 1011.4 hPa | 0 mm | - | 87 W/m² | - |
| 1778070401 | 7.22° C | 94% | 1011.5 hPa | 0 mm | - | 66 W/m² | - |
| 1778070098 | 7.22° C | 95% | 1011.6 hPa | 0 mm | - | 63 W/m² | - |
| 1778069796 | 7.22° C | 95% | 1011.5 hPa | 0 mm | - | 55 W/m² | - |
| 1778069492 | 7.22° C | 95% | 1011.4 hPa | 0 mm | - | 47 W/m² | - |
| 1778069190 | 7.22° C | 95% | 1011 hPa | 0 mm | - | 58 W/m² | - |
| 1778068887 | 6.67° C | 95% | 1011.1 hPa | 0 mm | - | 57 W/m² | - |
| 1778068586 | 6.67° C | 96% | 1010.8 hPa | 0 mm | - | 39 W/m² | - |
| 1778068284 | 6.67° C | 96% | 1011.1 hPa | 0 mm | - | 35 W/m² | - |
| 1778067981 | 6.67° C | 97% | 1010.9 hPa | 0 mm | - | 42 W/m² | - |
| 1778067678 | 6.67° C | 98% | 1010.7 hPa | 0 mm | - | 32 W/m² | - |
| 1778067377 | 6.67° C | 99% | 1010.4 hPa | 0 mm | - | 28 W/m² | - |
| 1778067074 | 6.67° C | 99% | 1010 hPa | 0 mm | - | 47 W/m² | - |
| 1778066770 | 6.11° C | 99% | 1009.9 hPa | 0 mm | - | 34 W/m² | - |
| 1778066468 | 6.11° C | 99% | 1010.2 hPa | 0 mm | - | 12 W/m² | - |
| 1778066165 | 6.11° C | 99% | 1010.2 hPa | 0 mm | - | 12 W/m² | - |
| 1778065862 | 6.11° C | 99% | 1010.3 hPa | 0 mm | - | 18 W/m² | - |
| 1778065560 | 6.11° C | 99% | 1010.3 hPa | 0 mm | - | 9 W/m² | - |
| 1778065257 | 6.11° C | 99% | 1010.6 hPa | 0 mm | - | 3 W/m² | - |
| 1778064953 | 6.11° C | 99% | 1010.3 hPa | 0 mm | - | 4 W/m² | - |
| 1778064650 | 6.11° C | 99% | 1010 hPa | 0 mm | - | 3 W/m² | - |
| 1778064348 | 6.11° C | 99% | 1009.8 hPa | 0 mm | - | 2 W/m² | - |
| 1778064046 | 6.11° C | 99% | 1009.9 hPa | 0 mm | - | 1 W/m² | - |
* Rain latest hour (hover to see other rain measurements)
** Current wind speed in m/s (hover to see current wind gust speed)